Time,TemperatureF,DewpointF,PressureIn,WindDirection,WindDirectionDegrees,WindSpeedMPH,WindSpeedGustMPH,Humidity,HourlyPrecipIn,Conditions,Clouds,dailyrainin,SoftwareType,DateUTC
2013-01-20 00:00:00,29.7,28.4,30.17,NNE,33,0.0,0.0,95,0.00,,,0.26,Wunderground v.1.15,2013-01-20 05:00:00,
2013-01-20 00:01:00,29.7,28.4,30.17,NNE,33,0.0,0.0,95,0.00,,,0.00,Wunderground v.1.15,2013-01-20 05:01:00,
2013-01-20 00:04:00,29.8,28.5,30.17,NNE,30,0.0,0.0,95,0.00,,,0.00,Wunderground v.1.15,2013-01-20 05:04:00,
2013-01-20 00:10:00,29.8,28.5,30.17,NNE,33,0.0,0.0,95,0.00,,,0.00,Wunderground v.1.15,2013-01-20 05:10:00,
2013-01-20 00:11:00,29.8,28.5,30.17,NE,34,0.0,0.0,95,0.00,,,0.00,Wunderground v.1.15,2013-01-20 05:11:00,
2013-01-20 00:17:00,29.9,28.6,30.16,NNE,33,0.0,0.0,95,0.00,,,0.00,Wunderground v.1.15,2013-01-20 05:17:00,
2013-01-20 00:23:00,29.8,28.5,30.16,NNE,33,0.0,0.0,95,0.00,,,0.00,Wunderground v.1.15,2013-01-20 05:23:00,
2013-01-20 00:29:00,29.7,28.4,30.16,NNE,33,0.0,0.0,95,0.00,,,0.00,Wunderground v.1.15,2013-01-20 05:29:00,
2013-01-20 00:34:00,29.7,28.4,30.16,NE,35,0.0,0.0,95,0.00,,,0.00,Wunderground v.1.15,2013-01-20 05:34:00,
2013-01-20 00:39:00,29.9,28.6,30.16,West,281,0.0,0.0,95,0.00,,,0.00,Wunderground v.1.15,2013-01-20 05:39:00,
2013-01-20 00:45:00,30.0,28.7,30.16,NE,41,0.0,0.0,95,0.00,,,0.00,Wunderground v.1.15,2013-01-20 05:45:00,
2013-01-20 00:51:00,30.1,28.8,30.15,NE,46,0.0,0.0,95,0.00,,,0.00,Wunderground v.1.15,2013-01-20 05:51:00,
2013-01-20 00:57:00,30.4,28.9,30.15,NW,322,0.0,0.0,94,0.00,,,0.00,Wunderground v.1.15,2013-01-20 05:57:00,
2013-01-20 01:03:00,30.5,29.0,30.15,NW,323,0.0,0.0,94,0.00,,,0.00,Wunderground v.1.15,2013-01-20 06:03:00,
2013-01-20 01:09:00,31.3,29.2,30.15,West,259,0.0,1.0,92,0.00,,,0.00,Wunderground v.1.15,2013-01-20 06:09:00,
2013-01-20 01:14:00,31.5,29.4,30.15,NW,308,0.0,0.0,92,0.00,,,0.00,Wunderground v.1.15,2013-01-20 06:14:00,
2013-01-20 01:20:00,31.5,29.2,30.14,NNE,12,0.0,0.0,91,0.00,,,0.00,Wunderground v.1.15,2013-01-20 06:20:00,
2013-01-20 01:26:00,32.0,29.4,30.15,NNE,18,0.0,0.0,90,0.00,,,0.00,Wunderground v.1.15,2013-01-20 06:26:00,
2013-01-20 01:32:00,32.5,29.6,30.14,West,268,0.0,0.0,89,0.00,,,0.00,Wunderground v.1.15,2013-01-20 06:32:00,
2013-01-20 01:37:00,33.0,29.6,30.14,SW,228,0.0,2.0,87,0.00,,,0.00,Wunderground v.1.15,2013-01-20 06:37:00,
2013-01-20 01:43:00,34.1,30.1,30.14,West,272,0.0,2.0,85,0.00,,,0.00,Wunderground v.1.15,2013-01-20 06:43:00,
2013-01-20 01:48:00,34.6,30.0,30.14,NNE,23,0.0,0.0,83,0.00,,,0.00,Wunderground v.1.15,2013-01-20 06:48:00,
2013-01-20 01:54:00,34.8,29.9,30.14,WSW,257,0.0,0.0,82,0.00,,,0.00,Wunderground v.1.15,2013-01-20 06:54:00,
2013-01-20 01:59:00,35.1,29.9,30.14,NNE,25,0.0,0.0,81,0.00,,,0.00,Wunderground v.1.15,2013-01-20 06:59:00,
2013-01-20 02:05:00,34.8,29.9,30.14,NNE,26,0.0,0.0,82,0.00,,,0.00,Wunderground v.1.15,2013-01-20 07:05:00,
2013-01-20 02:11:00,34.4,29.8,30.14,North,5,0.0,1.0,83,0.00,,,0.00,Wunderground v.1.15,2013-01-20 07:11:00,
2013-01-20 02:17:00,34.3,29.7,30.14,North,5,0.0,0.0,83,0.00,,,0.00,Wunderground v.1.15,2013-01-20 07:17:00,
2013-01-20 02:23:00,34.2,29.6,30.14,North,5,0.0,0.0,83,0.00,,,0.00,Wunderground v.1.15,2013-01-20 07:23:00,
2013-01-20 02:29:00,33.7,29.1,30.14,North,5,0.0,0.0,83,0.00,,,0.00,Wunderground v.1.15,2013-01-20 07:29:00,
2013-01-20 02:35:00,33.5,29.2,30.13,North,5,0.0,0.0,84,0.00,,,0.00,Wunderground v.1.15,2013-01-20 07:35:00,
2013-01-20 02:41:00,33.2,29.2,30.13,North,5,0.0,0.0,85,0.00,,,0.00,Wunderground v.1.15,2013-01-20 07:41:00,
2013-01-20 02:47:00,32.6,28.9,30.13,North,8,0.0,1.0,86,0.00,,,0.00,Wunderground v.1.15,2013-01-20 07:47:00,
2013-01-20 02:53:00,32.3,28.6,30.13,NNE,15,0.0,1.0,86,0.00,,,0.00,Wunderground v.1.15,2013-01-20 07:53:00,
2013-01-20 02:59:00,32.3,28.9,30.12,NNE,13,0.0,0.0,87,0.00,,,0.00,Wunderground v.1.15,2013-01-20 07:59:00,
2013-01-20 03:04:00,32.2,28.8,30.12,NNE,13,0.0,0.0,87,0.00,,,0.00,Wunderground v.1.15,2013-01-20 08:04:00,
2013-01-20 03:09:00,31.8,28.4,30.12,NNE,14,0.0,0.0,87,0.00,,,0.00,Wunderground v.1.15,2013-01-20 08:09:00,
2013-01-20 03:15:00,32.1,28.7,30.13,NNE,18,0.0,0.0,87,0.00,,,0.00,Wunderground v.1.15,2013-01-20 08:15:00,
2013-01-20 03:21:00,32.1,28.9,30.13,NNE,18,0.0,0.0,88,0.00,,,0.00,Wunderground v.1.15,2013-01-20 08:21:00,
2013-01-20 03:27:00,31.6,28.5,30.13,NNE,18,0.0,0.0,88,0.00,,,0.00,Wunderground v.1.15,2013-01-20 08:27:00,
2013-01-20 03:33:00,31.3,28.4,30.13,NNE,16,0.0,0.0,89,0.00,,,0.00,Wunderground v.1.15,2013-01-20 08:33:00,
2013-01-20 03:39:00,31.0,28.1,30.12,NNE,22,0.0,0.0,89,0.00,,,0.00,Wunderground v.1.15,2013-01-20 08:39:00,
2013-01-20 03:45:00,30.8,28.2,30.12,NNE,20,0.0,0.0,90,0.00,,,0.00,Wunderground v.1.15,2013-01-20 08:45:00,
2013-01-20 03:51:00,30.6,28.0,30.12,NNE,20,0.0,0.0,90,0.00,,,0.00,Wunderground v.1.15,2013-01-20 08:51:00,
2013-01-20 03:56:00,30.2,27.6,30.12,NNE,20,0.0,0.0,90,0.00,,,0.00,Wunderground v.1.15,2013-01-20 08:56:00,
2013-01-20 04:02:00,30.1,27.8,30.11,NNE,16,0.0,1.0,91,0.00,,,0.00,Wunderground v.1.15,2013-01-20 09:02:00,
2013-01-20 04:08:00,30.3,28.5,30.11,NNE,18,0.0,0.0,93,0.00,,,0.00,Wunderground v.1.15,2013-01-20 09:08:00,
2013-01-20 04:13:00,30.5,28.7,30.12,NNE,18,0.0,0.0,93,0.00,,,0.00,Wunderground v.1.15,2013-01-20 09:13:00,
2013-01-20 04:19:00,30.2,28.4,30.11,NNE,16,0.0,0.0,93,0.00,,,0.00,Wunderground v.1.15,2013-01-20 09:19:00,
2013-01-20 04:24:00,30.0,28.2,30.11,NNE,16,0.0,0.0,93,0.00,,,0.00,Wunderground v.1.15,2013-01-20 09:24:00,
2013-01-20 04:30:00,30.0,28.5,30.11,West,264,0.0,0.0,94,0.00,,,0.00,Wunderground v.1.15,2013-01-20 09:30:00,
2013-01-20 04:36:00,30.0,28.2,30.11,West,264,0.0,0.0,93,0.00,,,0.00,Wunderground v.1.15,2013-01-20 09:36:00,
2013-01-20 04:42:00,29.7,27.9,30.11,NE,36,0.0,0.0,93,0.00,,,0.00,Wunderground v.1.15,2013-01-20 09:42:00,
2013-01-20 04:48:00,29.6,27.8,30.11,NE,36,0.0,0.0,93,0.00,,,0.00,Wunderground v.1.15,2013-01-20 09:48:00,
2013-01-20 04:54:00,29.5,27.7,30.11,NE,35,0.0,0.0,93,0.00,,,0.00,Wunderground v.1.15,2013-01-20 09:54:00,
2013-01-20 04:59:00,29.8,28.5,30.11,NE,36,0.0,0.0,95,0.00,,,0.00,Wunderground v.1.15,2013-01-20 09:59:00,
2013-01-20 05:05:00,29.8,28.5,30.11,NE,36,0.0,0.0,95,0.00,,,0.00,Wunderground v.1.15,2013-01-20 10:05:00,
2013-01-20 05:11:00,29.6,28.1,30.11,NE,36,0.0,0.0,94,0.00,,,0.00,Wunderground v.1.15,2013-01-20 10:11:00,
2013-01-20 05:17:00,29.5,28.0,30.11,NE,39,0.0,0.0,94,0.00,,,0.00,Wunderground v.1.15,2013-01-20 10:17:00,
2013-01-20 05:22:00,29.9,28.6,30.10,NE,37,0.0,0.0,95,0.00,,,0.00,Wunderground v.1.15,2013-01-20 10:22:00,
2013-01-20 05:28:00,29.7,28.2,30.10,NNE,30,0.0,0.0,94,0.00,,,0.00,Wunderground v.1.15,2013-01-20 10:28:00,
2013-01-20 05:34:00,29.5,28.0,30.10,NNE,30,0.0,0.0,94,0.00,,,0.00,Wunderground v.1.15,2013-01-20 10:34:00,
2013-01-20 05:40:00,29.4,27.9,30.10,NNE,29,0.0,0.0,94,0.00,,,0.00,Wunderground v.1.15,2013-01-20 10:40:00,
2013-01-20 05:45:00,29.6,28.1,30.10,NNE,29,0.0,0.0,94,0.00,,,0.00,Wunderground v.1.15,2013-01-20 10:45:00,
2013-01-20 05:51:00,29.8,28.3,30.10,NNE,26,0.0,0.0,94,0.00,,,0.00,Wunderground v.1.15,2013-01-20 10:51:00,
2013-01-20 05:57:00,30.3,28.5,30.10,WSW,248,0.0,0.0,93,0.00,,,0.00,Wunderground v.1.15,2013-01-20 10:57:00,
2013-01-20 06:02:00,30.9,28.6,30.10,West,274,0.0,0.0,91,0.00,,,0.00,Wunderground v.1.15,2013-01-20 11:02:00,
2013-01-20 06:08:00,31.2,28.6,30.10,North,6,0.0,1.0,90,0.00,,,0.00,Wunderground v.1.15,2013-01-20 11:08:00,
2013-01-20 06:13:00,31.1,28.2,30.10,WNW,283,0.0,1.0,89,0.00,,,0.00,Wunderground v.1.15,2013-01-20 11:13:00,
2013-01-20 06:19:00,30.8,28.2,30.10,WNW,283,0.0,0.0,90,0.00,,,0.00,Wunderground v.1.15,2013-01-20 11:19:00,
2013-01-20 06:25:00,30.7,28.1,30.10,NNE,18,0.0,0.0,90,0.00,,,0.00,Wunderground v.1.15,2013-01-20 11:25:00,
2013-01-20 06:31:00,30.3,27.7,30.10,SW,224,0.0,1.0,90,0.00,,,0.00,Wunderground v.1.15,2013-01-20 11:31:00,
2013-01-20 06:37:00,30.4,27.8,30.10,SW,232,0.0,0.0,90,0.00,,,0.00,Wunderground v.1.15,2013-01-20 11:37:00,
2013-01-20 06:43:00,30.1,27.5,30.10,WSW,250,0.0,0.0,90,0.00,,,0.00,Wunderground v.1.15,2013-01-20 11:43:00,
2013-01-20 06:49:00,29.8,27.2,30.10,WSW,250,0.0,0.0,90,0.00,,,0.00,Wunderground v.1.15,2013-01-20 11:49:00,
2013-01-20 06:54:00,29.6,27.3,30.10,North,349,0.0,2.0,91,0.00,,,0.00,Wunderground v.1.15,2013-01-20 11:54:00,
2013-01-20 07:00:00,29.4,27.1,30.10,North,349,0.0,2.0,91,0.00,,,0.00,Wunderground v.1.15,2013-01-20 12:00:00,
2013-01-20 07:06:00,29.2,27.4,30.10,North,349,0.0,2.0,93,0.00,,,0.00,Wunderground v.1.15,2013-01-20 12:06:00,
2013-01-20 07:11:00,29.0,27.2,30.10,North,349,0.0,2.0,93,0.00,,,0.00,Wunderground v.1.15,2013-01-20 12:11:00,
2013-01-20 07:17:00,28.8,27.0,30.11,North,349,0.0,2.0,93,0.00,,,0.00,Wunderground v.1.15,2013-01-20 12:17:00,
2013-01-20 07:23:00,28.8,27.3,30.11,North,6,0.0,2.0,94,0.00,,,0.00,Wunderground v.1.15,2013-01-20 12:23:00,
2013-01-20 07:29:00,28.7,27.2,30.11,North,5,0.0,2.0,94,0.00,,,0.00,Wunderground v.1.15,2013-01-20 12:29:00,
2013-01-20 07:34:00,28.6,27.4,30.11,North,6,0.0,2.0,95,0.00,,,0.00,Wunderground v.1.15,2013-01-20 12:34:00,
2013-01-20 07:40:00,28.6,27.4,30.11,NNE,14,0.0,2.0,95,0.00,,,0.00,Wunderground v.1.15,2013-01-20 12:40:00,
2013-01-20 07:45:00,28.5,27.3,30.11,NNE,16,0.0,2.0,95,0.00,,,0.00,Wunderground v.1.15,2013-01-20 12:45:00,
2013-01-20 07:51:00,28.3,26.8,30.11,NNE,19,0.0,2.0,94,0.00,,,0.00,Wunderground v.1.15,2013-01-20 12:51:00,
2013-01-20 07:57:00,28.3,27.1,30.11,ENE,59,0.0,2.0,95,0.00,,,0.00,Wunderground v.1.15,2013-01-20 12:57:00,
2013-01-20 08:03:00,28.4,27.2,30.11,ENE,59,0.0,2.0,95,0.00,,,0.00,Wunderground v.1.15,2013-01-20 13:03:00,
2013-01-20 08:09:00,28.3,27.1,30.11,ENE,57,0.0,2.0,95,0.00,,,0.00,Wunderground v.1.15,2013-01-20 13:09:00,
2013-01-20 08:15:00,28.5,27.3,30.11,ENE,57,0.0,2.0,95,0.00,,,0.00,Wunderground v.1.15,2013-01-20 13:15:00,
2013-01-20 08:21:00,28.6,27.4,30.11,NE,56,0.0,2.0,95,0.00,,,0.00,Wunderground v.1.15,2013-01-20 13:21:00,
2013-01-20 08:27:00,28.9,27.6,30.11,West,259,0.0,2.0,95,0.00,,,0.00,Wunderground v.1.15,2013-01-20 13:27:00,
2013-01-20 08:32:00,29.3,28.0,30.11,North,354,0.0,2.0,95,0.00,,,0.00,Wunderground v.1.15,2013-01-20 13:32:00,
2013-01-20 08:37:00,30.1,29.1,30.12,North,360,0.0,2.0,96,0.00,,,0.00,Wunderground v.1.15,2013-01-20 13:37:00,
2013-01-20 08:43:00,31.1,29.8,30.11,North,359,0.0,2.0,95,0.00,,,0.00,Wunderground v.1.15,2013-01-20 13:43:00,
2013-01-20 08:49:00,32.6,30.8,30.12,NNE,12,0.0,2.0,93,0.00,,,0.00,Wunderground v.1.15,2013-01-20 13:49:00,
2013-01-20 08:55:00,34.4,31.5,30.12,NNE,12,0.0,2.0,89,0.00,,,0.00,Wunderground v.1.15,2013-01-20 13:55:00,
2013-01-20 09:00:00,35.8,31.7,30.12,ESE,109,0.0,2.0,85,0.00,,,0.00,Wunderground v.1.15,2013-01-20 14:00:00,
2013-01-20 09:06:00,37.3,32.3,30.12,WSW,242,0.0,2.0,82,0.00,,,0.00,Wunderground v.1.15,2013-01-20 14:06:00,
2013-01-20 09:12:00,38.2,32.6,30.12,NNE,12,0.0,2.0,80,0.00,,,0.00,Wunderground v.1.15,2013-01-20 14:12:00,
2013-01-20 09:18:00,39.3,33.0,30.12,West,262,0.0,2.0,78,0.00,,,0.00,Wunderground v.1.15,2013-01-20 14:18:00,
2013-01-20 09:24:00,40.3,32.7,30.13,SSW,213,0.0,2.0,74,0.00,,,0.00,Wunderground v.1.15,2013-01-20 14:24:00,
2013-01-20 09:30:00,41.3,32.2,30.12,West,278,1.0,2.0,70,0.00,,,0.00,Wunderground v.1.15,2013-01-20 14:30:00,
2013-01-20 09:36:00,42.4,32.6,30.12,WSW,243,1.0,2.0,68,0.00,,,0.00,Wunderground v.1.15,2013-01-20 14:36:00,
2013-01-20 09:42:00,43.7,33.1,30.12,WSW,243,1.0,2.0,66,0.00,,,0.00,Wunderground v.1.15,2013-01-20 14:42:00,
2013-01-20 09:48:00,45.1,33.2,30.12,West,273,1.0,2.0,63,0.00,,,0.00,Wunderground v.1.15,2013-01-20 14:48:00,
2013-01-20 09:54:00,46.7,33.5,30.12,WSW,249,3.0,7.0,60,0.00,,,0.00,Wunderground v.1.15,2013-01-20 14:54:00,
2013-01-20 10:00:00,47.8,33.7,30.12,West,262,4.0,8.0,58,0.00,,,0.00,Wunderground v.1.15,2013-01-20 15:00:00,
2013-01-20 10:05:00,48.5,34.8,30.12,SW,219,4.0,4.0,59,0.00,,,0.00,Wunderground v.1.15,2013-01-20 15:05:00,
2013-01-20 10:11:00,48.6,33.6,30.12,WSW,255,3.0,5.0,56,0.00,,,0.00,Wunderground v.1.15,2013-01-20 15:11:00,
2013-01-20 10:17:00,49.0,33.5,30.12,WSW,239,3.0,6.0,55,0.00,,,0.00,Wunderground v.1.15,2013-01-20 15:17:00,
2013-01-20 10:23:00,49.6,33.6,30.12,WNW,288,3.0,6.0,54,0.00,,,0.00,Wunderground v.1.15,2013-01-20 15:23:00,
2013-01-20 10:29:00,50.3,33.8,30.12,WNW,287,3.0,4.0,53,0.00,,,0.00,Wunderground v.1.15,2013-01-20 15:29:00,
2013-01-20 10:35:00,50.8,33.3,30.12,WSW,252,4.0,5.0,51,0.00,,,0.00,Wunderground v.1.15,2013-01-20 15:35:00,
2013-01-20 10:41:00,50.8,33.8,30.12,West,277,5.0,9.0,52,0.00,,,0.00,Wunderground v.1.15,2013-01-20 15:41:00,
2013-01-20 10:47:00,51.3,34.3,30.11,WSW,239,3.0,6.0,52,0.00,,,0.00,Wunderground v.1.15,2013-01-20 15:47:00,
2013-01-20 10:53:00,51.5,34.0,30.11,WSW,250,4.0,6.0,51,0.00,,,0.00,Wunderground v.1.15,2013-01-20 15:53:00,
2013-01-20 10:58:00,52.0,34.9,30.11,WSW,245,4.0,6.0,52,0.00,,,0.00,Wunderground v.1.15,2013-01-20 15:58:00,
2013-01-20 11:04:00,52.4,34.8,30.11,West,270,4.0,10.0,51,0.00,,,0.00,Wunderground v.1.15,2013-01-20 16:04:00,
2013-01-20 11:10:00,52.7,34.6,30.11,West,260,6.0,8.0,50,0.00,,,0.00,Wunderground v.1.15,2013-01-20 16:10:00,
2013-01-20 11:15:00,53.0,33.8,30.11,WSW,248,5.0,6.0,48,0.00,,,0.00,Wunderground v.1.15,2013-01-20 16:15:00,
2013-01-20 11:21:00,53.2,35.0,30.11,WSW,237,5.0,9.0,50,0.00,,,0.00,Wunderground v.1.15,2013-01-20 16:21:00,
2013-01-20 11:27:00,53.5,35.8,30.10,South,190,5.0,6.0,51,0.00,,,0.00,Wunderground v.1.15,2013-01-20 16:27:00,
2013-01-20 11:33:00,53.6,35.4,30.10,WSW,248,5.0,8.0,50,0.00,,,0.00,Wunderground v.1.15,2013-01-20 16:33:00,
2013-01-20 11:39:00,54.0,35.8,30.10,WNW,298,4.0,5.0,50,0.00,,,0.00,Wunderground v.1.15,2013-01-20 16:39:00,
2013-01-20 11:45:00,54.1,35.9,30.09,WSW,255,4.0,6.0,50,0.00,,,0.00,Wunderground v.1.15,2013-01-20 16:45:00,
2013-01-20 11:51:00,54.2,35.9,30.09,WSW,242,5.0,7.0,50,0.00,,,0.00,Wunderground v.1.15,2013-01-20 16:51:00,
2013-01-20 11:56:00,54.4,35.6,30.08,NW,309,4.0,6.0,49,0.00,,,0.00,Wunderground v.1.15,2013-01-20 16:56:00,
2013-01-20 12:02:00,54.6,35.8,30.08,SW,224,4.0,7.0,49,0.00,,,0.00,Wunderground v.1.15,2013-01-20 17:02:00,
2013-01-20 12:08:00,55.0,35.7,30.08,West,281,5.0,7.0,48,0.00,,,0.00,Wunderground v.1.15,2013-01-20 17:08:00,
2013-01-20 12:14:00,55.2,35.3,30.08,West,274,5.0,9.0,47,0.00,,,0.00,Wunderground v.1.15,2013-01-20 17:14:00,
2013-01-20 12:20:00,55.4,36.0,30.07,WSW,253,5.0,6.0,48,0.00,,,0.00,Wunderground v.1.15,2013-01-20 17:20:00,
2013-01-20 12:26:00,55.6,36.7,30.07,West,269,4.0,8.0,49,0.00,,,0.00,Wunderground v.1.15,2013-01-20 17:26:00,
2013-01-20 12:31:00,55.8,36.4,30.07,WNW,302,5.0,8.0,48,0.00,,,0.00,Wunderground v.1.15,2013-01-20 17:31:00,
2013-01-20 12:37:00,55.9,35.9,30.06,WNW,294,5.0,8.0,47,0.00,,,0.00,Wunderground v.1.15,2013-01-20 17:37:00,
2013-01-20 12:43:00,56.3,36.3,30.06,WSW,250,5.0,8.0,47,0.00,,,0.00,Wunderground v.1.15,2013-01-20 17:43:00,
2013-01-20 12:49:00,57.0,35.9,30.06,WSW,250,4.0,6.0,45,0.00,,,0.00,Wunderground v.1.15,2013-01-20 17:49:00,
2013-01-20 12:55:00,57.1,36.5,30.06,WNW,283,4.0,4.0,46,0.00,,,0.00,Wunderground v.1.15,2013-01-20 17:55:00,
2013-01-20 13:01:00,57.5,35.7,30.06,WSW,245,5.0,7.0,44,0.00,,,0.00,Wunderground v.1.15,2013-01-20 18:01:00,
2013-01-20 13:07:00,57.3,36.7,30.05,West,264,5.0,7.0,46,0.00,,,0.00,Wunderground v.1.15,2013-01-20 18:07:00,
2013-01-20 13:13:00,57.2,35.5,30.05,West,273,6.0,12.0,44,0.00,,,0.00,Wunderground v.1.15,2013-01-20 18:13:00,
2013-01-20 13:19:00,57.6,35.2,30.05,WNW,302,6.0,9.0,43,0.00,,,0.00,Wunderground v.1.15,2013-01-20 18:19:00,
2013-01-20 13:25:00,57.6,35.8,30.04,West,281,5.0,6.0,44,0.00,,,0.00,Wunderground v.1.15,2013-01-20 18:25:00,
2013-01-20 13:30:00,58.0,36.8,30.04,WSW,250,4.0,6.0,45,0.00,,,0.00,Wunderground v.1.15,2013-01-20 18:30:00,
2013-01-20 13:36:00,58.7,38.0,30.04,West,262,3.0,5.0,46,0.00,,,0.00,Wunderground v.1.15,2013-01-20 18:36:00,
2013-01-20 13:42:00,58.9,35.2,30.03,West,270,4.0,7.0,41,0.00,,,0.00,Wunderground v.1.15,2013-01-20 18:42:00,
2013-01-20 13:48:00,58.9,35.8,30.04,West,264,5.0,8.0,42,0.00,,,0.00,Wunderground v.1.15,2013-01-20 18:48:00,
2013-01-20 13:54:00,59.0,34.7,30.04,WNW,294,5.0,5.0,40,0.00,,,0.00,Wunderground v.1.15,2013-01-20 18:54:00,
2013-01-20 14:00:00,58.9,35.2,30.03,SW,221,5.0,7.0,41,0.00,,,0.00,Wunderground v.1.15,2013-01-20 19:00:00,
2013-01-20 14:06:00,59.1,36.0,30.03,WSW,257,5.0,6.0,42,0.00,,,0.00,Wunderground v.1.15,2013-01-20 19:06:00,
2013-01-20 14:12:00,59.1,36.0,30.03,WNW,298,4.0,6.0,42,0.00,,,0.00,Wunderground v.1.15,2013-01-20 19:12:00,
2013-01-20 14:18:00,59.7,35.9,30.03,West,278,3.0,7.0,41,0.00,,,0.00,Wunderground v.1.15,2013-01-20 19:18:00,
2013-01-20 14:24:00,59.6,37.1,30.03,WSW,257,3.0,7.0,43,0.00,,,0.00,Wunderground v.1.15,2013-01-20 19:24:00,
2013-01-20 14:30:00,60.0,35.6,30.03,WNW,302,3.0,9.0,40,0.00,,,0.00,Wunderground v.1.15,2013-01-20 19:30:00,
2013-01-20 14:36:00,60.0,36.8,30.03,West,269,4.0,5.0,42,0.00,,,0.00,Wunderground v.1.15,2013-01-20 19:36:00,
2013-01-20 14:41:00,60.1,34.4,30.02,WNW,297,4.0,10.0,38,0.00,,,0.00,Wunderground v.1.15,2013-01-20 19:41:00,
2013-01-20 14:47:00,60.1,34.4,30.02,NW,311,6.0,9.0,38,0.00,,,0.00,Wunderground v.1.15,2013-01-20 19:47:00,
2013-01-20 14:53:00,60.1,35.0,30.02,WSW,254,6.0,9.0,39,0.00,,,0.00,Wunderground v.1.15,2013-01-20 19:53:00,
2013-01-20 14:59:00,60.4,35.3,30.02,WNW,291,4.0,5.0,39,0.00,,,0.00,Wunderground v.1.15,2013-01-20 19:59:00,
2013-01-20 15:05:00,60.9,35.8,30.02,West,261,3.0,5.0,39,0.00,,,0.00,Wunderground v.1.15,2013-01-20 20:05:00,
2013-01-20 15:11:00,61.5,35.6,30.02,WNW,294,2.0,5.0,38,0.00,,,0.00,Wunderground v.1.15,2013-01-20 20:11:00,
2013-01-20 15:16:00,61.7,34.5,30.02,West,260,3.0,5.0,36,0.00,,,0.00,Wunderground v.1.15,2013-01-20 20:16:00,
2013-01-20 15:22:00,61.4,31.3,30.02,West,277,4.0,13.0,32,0.00,,,0.00,Wunderground v.1.15,2013-01-20 20:22:00,
2013-01-20 15:28:00,61.1,31.0,30.02,NW,319,6.0,12.0,32,0.00,,,0.00,Wunderground v.1.15,2013-01-20 20:28:00,
2013-01-20 15:34:00,61.0,30.9,30.02,West,280,5.0,5.0,32,0.00,,,0.00,Wunderground v.1.15,2013-01-20 20:34:00,
2013-01-20 15:40:00,61.1,31.8,30.02,West,271,4.0,5.0,33,0.00,,,0.00,Wunderground v.1.15,2013-01-20 20:40:00,
2013-01-20 15:46:00,61.0,30.9,30.02,West,259,4.0,6.0,32,0.00,,,0.00,Wunderground v.1.15,2013-01-20 20:46:00,
2013-01-20 15:52:00,61.4,32.8,30.02,North,6,3.0,6.0,34,0.00,,,0.00,Wunderground v.1.15,2013-01-20 20:52:00,
2013-01-20 15:58:00,61.4,32.0,30.02,NW,308,2.0,5.0,33,0.00,,,0.00,Wunderground v.1.15,2013-01-20 20:58:00,
2013-01-20 16:04:00,61.1,31.8,30.03,NW,322,3.0,5.0,33,0.00,,,0.00,Wunderground v.1.15,2013-01-20 21:04:00,
2013-01-20 16:09:00,60.8,31.5,30.02,WSW,242,3.0,5.0,33,0.00,,,0.00,Wunderground v.1.15,2013-01-20 21:09:00,
2013-01-20 16:15:00,60.8,30.7,30.03,WSW,252,3.0,5.0,32,0.00,,,0.00,Wunderground v.1.15,2013-01-20 21:15:00,
2013-01-20 16:21:00,60.3,29.5,30.03,North,1,3.0,7.0,31,0.00,,,0.00,Wunderground v.1.15,2013-01-20 21:21:00,
2013-01-20 16:27:00,60.0,30.0,30.03,WSW,255,3.0,5.0,32,0.00,,,0.00,Wunderground v.1.15,2013-01-20 21:27:00,
2013-01-20 16:33:00,59.8,30.6,30.03,WSW,248,3.0,6.0,33,0.00,,,0.00,Wunderground v.1.15,2013-01-20 21:33:00,
2013-01-20 16:38:00,59.7,30.5,30.03,SW,235,3.0,5.0,33,0.00,,,0.00,Wunderground v.1.15,2013-01-20 21:38:00,
2013-01-20 16:44:00,59.5,29.6,30.03,WSW,248,3.0,3.0,32,0.00,,,0.00,Wunderground v.1.15,2013-01-20 21:44:00,
2013-01-20 16:49:00,58.9,29.8,30.03,WNW,296,3.0,6.0,33,0.00,,,0.00,Wunderground v.1.15,2013-01-20 21:49:00,
2013-01-20 16:55:00,58.7,30.4,30.03,NW,314,3.0,5.0,34,0.00,,,0.00,Wunderground v.1.15,2013-01-20 21:55:00,
2013-01-20 17:01:00,58.7,31.1,30.04,WNW,295,2.0,5.0,35,0.00,,,0.00,Wunderground v.1.15,2013-01-20 22:01:00,
2013-01-20 17:07:00,58.4,30.8,30.04,West,266,2.0,5.0,35,0.00,,,0.00,Wunderground v.1.15,2013-01-20 22:07:00,
2013-01-20 17:13:00,57.5,30.7,30.04,West,274,2.0,5.0,36,0.00,,,0.00,Wunderground v.1.15,2013-01-20 22:13:00,
2013-01-20 17:19:00,56.7,30.7,30.05,NNW,342,2.0,5.0,37,0.00,,,0.00,Wunderground v.1.15,2013-01-20 22:19:00,
2013-01-20 17:25:00,55.7,29.8,30.05,West,263,1.0,5.0,37,0.00,,,0.00,Wunderground v.1.15,2013-01-20 22:25:00,
2013-01-20 17:30:00,55.2,29.4,30.05,West,274,1.0,5.0,37,0.00,,,0.00,Wunderground v.1.15,2013-01-20 22:30:00,
2013-01-20 17:36:00,54.9,29.7,30.06,West,274,2.0,5.0,38,0.00,,,0.00,Wunderground v.1.15,2013-01-20 22:36:00,
2013-01-20 17:41:00,54.7,28.9,30.06,West,274,2.0,5.0,37,0.00,,,0.00,Wunderground v.1.15,2013-01-20 22:41:00,
2013-01-20 17:47:00,54.2,29.1,30.06,West,277,1.0,5.0,38,0.00,,,0.00,Wunderground v.1.15,2013-01-20 22:47:00,
2013-01-20 17:53:00,53.5,29.7,30.07,NNW,347,0.0,5.0,40,0.00,,,0.00,Wunderground v.1.15,2013-01-20 22:53:00,
2013-01-20 17:59:00,53.0,29.9,30.07,East,82,1.0,5.0,41,0.00,,,0.00,Wunderground v.1.15,2013-01-20 22:59:00,
2013-01-20 18:05:00,52.5,29.5,30.08,WNW,285,1.0,3.0,41,0.00,,,0.00,Wunderground v.1.15,2013-01-20 23:05:00,
2013-01-20 18:11:00,52.2,29.8,30.08,SW,232,1.0,3.0,42,0.00,,,0.00,Wunderground v.1.15,2013-01-20 23:11:00,
2013-01-20 18:16:00,51.8,30.0,30.08,North,351,1.0,3.0,43,0.00,,,0.00,Wunderground v.1.15,2013-01-20 23:16:00,
2013-01-20 18:21:00,51.2,30.0,30.08,NW,326,0.0,3.0,44,0.00,,,0.00,Wunderground v.1.15,2013-01-20 23:21:00,
2013-01-20 18:27:00,50.6,30.0,30.08,NE,37,0.0,1.0,45,0.00,,,0.00,Wunderground v.1.15,2013-01-20 23:27:00,
2013-01-20 18:33:00,49.9,29.9,30.09,NW,305,1.0,3.0,46,0.00,,,0.00,Wunderground v.1.15,2013-01-20 23:33:00,
2013-01-20 18:39:00,49.8,29.8,30.09,West,262,1.0,1.0,46,0.00,,,0.00,Wunderground v.1.15,2013-01-20 23:39:00,
2013-01-20 18:44:00,49.6,29.1,30.09,West,271,0.0,0.0,45,0.00,,,0.00,Wunderground v.1.15,2013-01-20 23:44:00,
2013-01-20 18:50:00,49.2,29.8,30.09,WSW,257,0.0,0.0,47,0.00,,,0.00,Wunderground v.1.15,2013-01-20 23:50:00,
2013-01-20 18:55:00,49.0,29.6,30.09,WSW,245,0.0,3.0,47,0.00,,,0.00,Wunderground v.1.15,2013-01-20 23:55:00,
2013-01-20 19:01:00,48.9,29.5,30.10,WSW,255,1.0,3.0,47,0.00,,,0.00,Wunderground v.1.15,2013-01-21 00:01:00,
2013-01-20 19:07:00,48.6,29.3,30.10,NNE,25,1.0,3.0,47,0.00,,,0.00,Wunderground v.1.15,2013-01-21 00:07:00,
2013-01-20 19:12:00,48.5,29.2,30.10,NW,309,0.0,3.0,47,0.00,,,0.00,Wunderground v.1.15,2013-01-21 00:12:00,
2013-01-20 19:17:00,48.4,29.6,30.10,WSW,245,0.0,3.0,48,0.00,,,0.00,Wunderground v.1.15,2013-01-21 00:17:00,
2013-01-20 19:23:00,48.0,29.2,30.10,SSW,204,0.0,3.0,48,0.00,,,0.00,Wunderground v.1.15,2013-01-21 00:23:00,
2013-01-20 19:29:00,47.5,29.8,30.10,South,176,0.0,3.0,50,0.00,,,0.00,Wunderground v.1.15,2013-01-21 00:29:00,
2013-01-20 19:34:00,47.0,29.8,30.10,SSE,158,0.0,3.0,51,0.00,,,0.00,Wunderground v.1.15,2013-01-21 00:34:00,
2013-01-20 19:39:00,46.4,30.6,30.10,SSE,159,0.0,3.0,54,0.00,,,0.00,Wunderground v.1.15,2013-01-21 00:39:00,
2013-01-20 19:44:00,45.4,31.0,30.10,SSE,159,0.0,3.0,57,0.00,,,0.00,Wunderground v.1.15,2013-01-21 00:44:00,
2013-01-20 19:50:00,44.3,30.9,30.11,SSE,160,0.0,3.0,59,0.00,,,0.00,Wunderground v.1.15,2013-01-21 00:50:00,
2013-01-20 19:56:00,43.4,30.4,30.11,NE,44,0.0,3.0,60,0.00,,,0.00,Wunderground v.1.15,2013-01-21 00:56:00,
2013-01-20 20:02:00,42.6,31.3,30.10,NE,42,0.0,3.0,64,0.00,,,0.00,Wunderground v.1.15,2013-01-21 01:02:00,
2013-01-20 20:08:00,41.9,31.0,30.10,NE,43,0.0,3.0,65,0.00,,,0.00,Wunderground v.1.15,2013-01-21 01:08:00,
2013-01-20 20:13:00,41.3,30.8,30.11,NE,43,0.0,3.0,66,0.00,,,0.00,Wunderground v.1.15,2013-01-21 01:13:00,
2013-01-20 20:19:00,40.6,30.9,30.11,NE,42,0.0,3.0,68,0.00,,,0.00,Wunderground v.1.15,2013-01-21 01:19:00,
2013-01-20 20:25:00,39.8,31.5,30.11,NE,43,0.0,3.0,72,0.00,,,0.00,Wunderground v.1.15,2013-01-21 01:25:00,
2013-01-20 20:30:00,39.3,31.4,30.11,NE,43,0.0,3.0,73,0.00,,,0.00,Wunderground v.1.15,2013-01-21 01:30:00,
2013-01-20 20:37:00,38.8,31.2,30.11,NE,42,0.0,3.0,74,0.00,,,0.00,Wunderground v.1.15,2013-01-21 01:37:00,
2013-01-20 20:42:00,38.3,31.1,30.11,NE,43,0.0,3.0,75,0.00,,,0.00,Wunderground v.1.15,2013-01-21 01:42:00,
2013-01-20 20:48:00,37.9,31.3,30.11,NE,42,0.0,3.0,77,0.00,,,0.00,Wunderground v.1.15,2013-01-21 01:48:00,
2013-01-20 20:54:00,37.4,31.5,30.11,NE,43,0.0,3.0,79,0.00,,,0.00,Wunderground v.1.15,2013-01-21 01:54:00,
2013-01-20 21:00:00,36.9,31.3,30.11,NE,43,0.0,3.0,80,0.00,,,0.00,Wunderground v.1.15,2013-01-21 02:00:00,
2013-01-20 21:05:00,36.5,31.2,30.11,NE,42,0.0,3.0,81,0.00,,,0.00,Wunderground v.1.15,2013-01-21 02:05:00,
2013-01-20 21:11:00,36.2,31.2,30.11,NE,40,0.0,3.0,82,0.00,,,0.00,Wunderground v.1.15,2013-01-21 02:11:00,
2013-01-20 21:17:00,35.9,30.9,30.11,NE,40,0.0,3.0,82,0.00,,,0.00,Wunderground v.1.15,2013-01-21 02:17:00,
2013-01-20 21:23:00,35.6,30.9,30.11,NE,40,0.0,3.0,83,0.00,,,0.00,Wunderground v.1.15,2013-01-21 02:23:00,
2013-01-20 21:28:00,35.5,31.1,30.11,NE,41,0.0,3.0,84,0.00,,,0.00,Wunderground v.1.15,2013-01-21 02:28:00,
2013-01-20 21:34:00,35.3,30.7,30.11,NE,41,0.0,3.0,83,0.00,,,0.00,Wunderground v.1.15,2013-01-21 02:34:00,
2013-01-20 21:39:00,35.0,30.7,30.11,NE,40,0.0,3.0,84,0.00,,,0.00,Wunderground v.1.15,2013-01-21 02:39:00,
2013-01-20 21:44:00,34.7,30.7,30.11,NNE,27,0.0,3.0,85,0.00,,,0.00,Wunderground v.1.15,2013-01-21 02:44:00,
2013-01-20 21:50:00,34.4,30.4,30.11,NNE,25,0.0,3.0,85,0.00,,,0.00,Wunderground v.1.15,2013-01-21 02:50:00,
2013-01-20 21:56:00,34.2,30.4,30.11,NNE,25,0.0,3.0,86,0.00,,,0.00,Wunderground v.1.15,2013-01-21 02:56:00,
2013-01-20 22:01:00,33.9,30.2,30.11,NNE,26,0.0,3.0,86,0.00,,,0.00,Wunderground v.1.15,2013-01-21 03:01:00,
2013-01-20 22:08:00,33.5,30.0,30.11,NNE,26,0.0,3.0,87,0.00,,,0.00,Wunderground v.1.15,2013-01-21 03:08:00,
2013-01-20 22:13:00,33.3,29.8,30.11,NNE,25,0.0,3.0,87,0.00,,,0.00,Wunderground v.1.15,2013-01-21 03:13:00,
2013-01-20 22:19:00,33.5,30.0,30.11,NNE,26,0.0,3.0,87,0.00,,,0.00,Wunderground v.1.15,2013-01-21 03:19:00,
2013-01-20 22:24:00,33.3,29.8,30.11,NNE,25,0.0,3.0,87,0.00,,,0.00,Wunderground v.1.15,2013-01-21 03:24:00,
2013-01-20 22:29:00,33.0,29.6,30.11,NNE,26,0.0,3.0,87,0.00,,,0.00,Wunderground v.1.15,2013-01-21 03:29:00,
2013-01-20 22:34:00,32.8,29.6,30.11,NNE,25,0.0,3.0,88,0.00,,,0.00,Wunderground v.1.15,2013-01-21 03:34:00,
2013-01-20 22:40:00,32.6,29.7,30.11,NNE,25,0.0,3.0,89,0.00,,,0.00,Wunderground v.1.15,2013-01-21 03:40:00,
2013-01-20 22:46:00,32.4,29.5,30.11,NNE,19,0.0,3.0,89,0.00,,,0.00,Wunderground v.1.15,2013-01-21 03:46:00,
2013-01-20 22:52:00,32.3,29.4,30.11,NNE,19,0.0,3.0,89,0.00,,,0.00,Wunderground v.1.15,2013-01-21 03:52:00,
2013-01-20 22:57:00,32.1,29.2,30.11,NNE,18,0.0,3.0,89,0.00,,,0.00,Wunderground v.1.15,2013-01-21 03:57:00,
2013-01-20 23:03:00,31.8,28.9,30.11,NNE,19,0.0,3.0,89,0.00,,,0.00,Wunderground v.1.15,2013-01-21 04:03:00,
2013-01-20 23:08:00,31.5,28.6,30.11,NNE,18,0.0,3.0,89,0.00,,,0.00,Wunderground v.1.15,2013-01-21 04:08:00,
2013-01-20 23:13:00,31.6,29.0,30.11,NNE,19,0.0,3.0,90,0.00,,,0.00,Wunderground v.1.15,2013-01-21 04:13:00,
2013-01-20 23:19:00,31.4,28.8,30.11,NNE,18,0.0,3.0,90,0.00,,,0.00,Wunderground v.1.15,2013-01-21 04:19:00,
2013-01-20 23:25:00,31.2,28.6,30.11,NNE,19,0.0,3.0,90,0.00,,,0.00,Wunderground v.1.15,2013-01-21 04:25:00,
2013-01-20 23:31:00,31.3,28.7,30.10,NNE,20,0.0,3.0,90,0.00,,,0.00,Wunderground v.1.15,2013-01-21 04:31:00,
2013-01-20 23:37:00,31.3,29.0,30.10,NNE,21,0.0,3.0,91,0.00,,,0.00,Wunderground v.1.15,2013-01-21 04:37:00,
2013-01-20 23:43:00,31.4,29.1,30.11,SW,221,0.0,3.0,91,0.00,,,0.00,Wunderground v.1.15,2013-01-21 04:43:00,
2013-01-20 23:49:00,31.2,28.9,30.10,SW,221,0.0,3.0,91,0.00,,,0.00,Wunderground v.1.15,2013-01-21 04:49:00,
2013-01-20 23:55:00,30.8,28.5,30.10,North,9,0.0,3.0,91,0.00,,,0.00,Wunderground v.1.15,2013-01-21 04:55:00,